Denver, CO

12:18 AM MDT on July 23, 2017 (GMT -0600)
Denver International

Weather History for KDEN - October, 2012

Change the Weather History Date:

Saturday, October 20, 2012

  Actual Average Record
Temperature  
Mean Temperature 60 °F 49 °F  
Max Temperature 70 °F 64 °F 83 °F (1950)
Min Temperature 50 °F 35 °F 21 °F (1995)
Degree Days  
Heating Degree Days 5 16  
Month to date heating degree days 289 244  
Since 1 July heating degree days 358 385  
Cooling Degree Days 0 0  
Month to date cooling degree days 1 1  
Year to date cooling degree days 1236 765  
Growing Degree Days 10 (Base 50)    
Moisture  
Dew Point 21 °F    
Average Humidity 23    
Maximum Humidity 32    
Minimum Humidity 14    
Precipitation  
Precipitation 0.00 in 0.03 in 0.97 in (1965)
Month to date precipitation 0.55 0.71  
Year to date precipitation 8.90 13.03  
Snow  
Snow 0.00 in - - ()
Month to date snowfall 0.4  
Since 1 July snowfall 0.4  
Since 1 September snowfall 0.4  
Snow Depth 0.00 in    
Sea Level Pressure  
Sea Level Pressure 29.64 in    
Wind  
Wind Speed 10 mph (SSW)    
Max Wind Speed 17 mph    
Max Gust Speed 21 mph    
Visibility 10 miles    
Events      
T = Trace of Precipitation, MM = Missing Value Source: NWS Daily Summary

Daily Weather History Graph

Daily Weather History Graph

Search for Another Location

Airport or City:

Trip Planner

Search our weather history database for the weather conditions in past years. The results will help you decide how hot, cold, wet, or windy it might be!

Date:

Astronomy

Oct. 20, 2012 Rise Set
Actual Time 7:14 AM MDT 6:11 PM MDT
Civil Twilight 6:47 AM MDT 6:38 PM MDT
Nautical Twilight 6:15 AM MDT 7:10 PM MDT
Astronomical Twilight 5:44 AM MDT 7:41 PM MDT
Moon 12:52 PM MDT (10/20) 11:00 PM MDT (10/20)
Length of Visible Light 11h 51m
Length of Day
10h 56m
Waxing Crescent, 35% of the Moon is Illuminated
Oct 20
Waxing Crescent
Oct 21
First Quarter
Oct 29
Full
Nov 6
Last Quarter
Nov 13
New

Hourly Weather History & Observations

Time (MDT) Temp. Dew Point Humidity Pressure Visibility Wind Dir Wind Speed Gust Speed Precip Events Conditions
12:53 AM 54.0 °F 19.0 °F 25% 29.70 in 10.0 mi West 10.4 mph - N/A   Mostly Cloudy
1:53 AM 52.0 °F 19.0 °F 27% 29.69 in 10.0 mi SW 11.5 mph - N/A   Mostly Cloudy
2:53 AM 55.0 °F 16.0 °F 22% 29.67 in 10.0 mi SSW 16.1 mph - N/A   Mostly Cloudy
3:53 AM 55.0 °F 15.1 °F 21% 29.66 in 10.0 mi SSW 13.8 mph - N/A   Mostly Cloudy
4:53 AM 53.1 °F 17.1 °F 24% 29.68 in 10.0 mi SSW 9.2 mph - N/A   Mostly Cloudy
5:53 AM 51.1 °F 17.1 °F 26% 29.69 in 10.0 mi South 10.4 mph - N/A   Mostly Cloudy
6:53 AM 54.0 °F 16.0 °F 22% 29.70 in 10.0 mi SSW 13.8 mph - N/A   Scattered Clouds
7:53 AM 55.9 °F 17.1 °F 22% 29.70 in 10.0 mi SSW 12.7 mph - N/A   Mostly Cloudy
8:53 AM 60.1 °F 18.0 °F 20% 29.71 in 10.0 mi SSW 11.5 mph - N/A   Mostly Cloudy
9:53 AM 64.0 °F 19.0 °F 18% 29.69 in 10.0 mi SW 10.4 mph - N/A   Mostly Cloudy
10:53 AM 66.9 °F 16.0 °F 14% 29.67 in 10.0 mi WSW 6.9 mph - N/A   Mostly Cloudy
11:53 AM 66.2 °F 19.4 °F 17% 29.84 in 10.0 mi SSW 8.1 mph - N/A   Mostly Cloudy
12:53 PM 66.9 °F 21.0 °F 17% 29.62 in 10.0 mi SSW 11.5 mph - N/A   Mostly Cloudy
1:53 PM 70.0 °F 21.0 °F 16% 29.58 in 10.0 mi South 9.2 mph - N/A   Mostly Cloudy
2:53 PM 69.1 °F 28.0 °F 22% 29.56 in 10.0 mi NE 5.8 mph - N/A   Mostly Cloudy
3:53 PM 70.0 °F 32.0 °F 25% 29.55 in 10.0 mi ENE 4.6 mph - N/A   Mostly Cloudy
4:53 PM 68.0 °F 27.0 °F 21% 29.54 in 10.0 mi East 8.1 mph - N/A   Mostly Cloudy
5:53 PM 61.0 °F 27.0 °F 27% 29.57 in 10.0 mi East 4.6 mph - N/A   Mostly Cloudy
6:53 PM 60.1 °F 21.0 °F 22% 29.57 in 10.0 mi East 5.8 mph - N/A   Mostly Cloudy
7:53 PM 57.9 °F 19.9 °F 23% 29.57 in 10.0 mi ENE 6.9 mph - N/A   Mostly Cloudy
8:53 PM 52.0 °F 21.9 °F 31% 29.59 in 10.0 mi WSW 9.2 mph - N/A   Scattered Clouds
9:53 PM 52.0 °F 21.0 °F 30% 29.58 in 10.0 mi SW 12.7 mph - N/A   Scattered Clouds
10:53 PM 51.1 °F 23.0 °F 33% 29.58 in 10.0 mi SW 10.4 mph - N/A   Scattered Clouds
11:53 PM 52.0 °F 21.9 °F 31% 29.59 in 10.0 mi WSW 6.9 mph - N/A   Scattered Clouds